STARLINK-2028 (47646 NORAD) Tracking and Keplerian Element Data
This shows tracking and keplerian element data for the satellite.
Feedback or suggestion? Click here.
Element | Value |
Catalog | 47646 |
Name | STARLINK-2028 |
Epoch Orbit | 182 |
Epoch Day | 99.91667824 |
Epoch Year | 2021 |
RAAN | 198.8731 |
Inclination | 53.0474 |
Eccentricity | 0.000186 |
Argument of Perigee | 38.4496 |
Mean Anonmoly | 215.2954 |
Mean Motion | 15.73208834 |
Decay Rate | -0.00018954 |
L1 | 1 47646U 21012AC 21099.91667824 -.00018954 00000-0 -13084-3 0 9995 |
L2 | 2 47646 53.0474 198.8731 0001860 38.4496 215.2954 15.73208834 1828 |
Live tracking and technical data element details for STARLINK-2028 (NORAD 47646). STARLINK-2028 can be tracked NOW for your location showing map with azimuth and elevation plus other details from your city location.
Track the satellite on the map from your city or location and see movement details for azimuth, elevation, latitude, longitude, range, height, and movement on the map or in text.
IsCatalogInMostPopularTable: catalog: 47646, numindb: 16
Update: records affected: 1
GetName: 47646 STARLINK-2028
Hit Count: updated at: Sat, 10 Apr 2021 19:17:42 GMT